Weather in Cartagena

Spain     37°36′32″N   0°59′06″E
temp.,
°C
wind,
m/s
gust,
m/s
humid.,
%
clouds,
%
prec.,
mm/h
press.,
hPa
HPBL,
m
20 april, tue
tue2023:00+16wsw577286 0.0 1016178
02:00+16sw457398 0.0 1015137
05:00+16w237593 0.0 101553
08:00+16wnw226645 0.1 101418
11:00+18e236329 0.0 1015166
14:00+18sse43677 0.0 1014425
17:00+17ssw447799 0.0 1012322
20:00+17ssw2283100 0.0 1012139
21 april, wed
wed2123:00+17sse2284100 0.0 101326
02:00+16ne2284100 0.0 101231
05:00+16nne3385100 0.0 1011112
08:00+15n4486100 0.0 1011164
11:00+17nne4579100 0.0 1012281
14:00+18e5476100 0.0 1011377
17:00+17ese4477100 0.0 1010348
20:00+17e2382100 0.0 1011191
22 april, thu
thu2223:00+16nne4487100 0.0 1013255
02:00+16nne4486100 0.1 1013302
05:00+15e3387100 0.1 1011209
08:00+15nne1187100 0.1 1012128
11:00+15e2286100 1.1 1013213
14:00+16se338086 1.3 1013331
17:00+17ese44804 0.1 1012406
20:00+16ese338119 0.1 1014296
23 april, fri
fri2323:00+16ne34845 0.0 1016189
02:00+15ne568911 0.0 1017353
05:00+15ne788399 0.0 1016626
08:00+15ne5682100 0.0 1017605
11:00+16ene567698 0.0 1019816
14:00+17ene7775100 0.1 1018721
17:00+17ene7872100 0.0 1017641
20:00+16ene787719 0.0 1018581
24 april, sat
sat2423:00+15ne6883100 0.0 1019494
02:00+15ne7108691 0.0 1017562
05:00+15nne798792 0.0 1017614
08:00+15ne91085100 0.1 1018752
11:00+16ne10128197 0.1 1018922
14:00+17ne111278100 0.1 1016842
17:00+16ne121481100 0.0 1014740
20:00+16ne131787100 0.0 1013702